Location: Dehesa de la Cepeda
(40.6574°N, 4.3013°W)
Time: 12:33:27
(UTC+00:00)

Vanguard 2 Rocket - Pass Details

Date: 09 August 2021
Orbit: 556 x 3323 km, 32.9° (Epoch: 24 September)

Event Time Altitude Azimuth Distance (km) Brightness Sun altitude
Rises 04:25:39 0° 232° (SW) 4,854 - -10.4°
Exits shadow 04:29:50 10° 222° (SW) 3,427 9.2 -9.7°
Reaches altitude 10° 04:30:01 10° 222° (SW) 3,367 9.2 -9.6°
Maximum altitude 04:36:16 26° 169° (SSE) 1,762 8.2 -8.6°
Drops below altitude 10° 04:40:35 10° 112° (ESE) 2,248 9.5 -7.9°
Sets 04:42:53 0° 98° (E) 2,980 10.5 -7.5°
